| time (UTC) | temp F | wind direction | speed MPH | gust MPH | rain 1hr in | rain 24hr in | rain mn in | humidity % | barometer mb |
| 20260906211820 | 68 | 63 | 5.0 | 9.0 | 0.00 | 0.00 | 0.00 | 70 | 1024.0 |
| 20260906210317 | 70 | 26 | 3.0 | 8.0 | 0.00 | 0.00 | 0.00 | 70 | 1024.0 |
| 20260906204829 | 69 | 43 | 5.0 | 11.0 | 0.00 | 0.00 | 0.00 | 68 | 1023.8 |
| 20260906203316 | 71 | 29 | 3.0 | 8.0 | 0.00 | 0.00 | 0.00 | 71 | 1023.7 |
| 20260906201830 | 70 | 329 | 5.0 | 10.0 | 0.00 | 0.00 | 0.00 | 70 | 1023.7 |
| 20260906200319 | 69 | 334 | 3.0 | 9.0 | 0.00 | 0.00 | 0.00 | 74 | 1023.7 |
| 20260906194830 | 70 | 70 | 4.0 | 12.0 | 0.00 | 0.00 | 0.00 | 74 | 1023.6 |
| 20260906193339 | 70 | 338 | 3.0 | 8.0 | 0.00 | 0.00 | 0.00 | 73 | 1023.7 |
| 20260906191830 | 71 | 29 | 7.0 | 10.0 | 0.00 | 0.00 | 0.00 | 70 | 1023.6 |
| 20260906190325 | 71 | 308 | 4.0 | 13.0 | 0.00 | 0.00 | 0.00 | 69 | 1023.5 |
| 20260906184817 | 70 | 53 | 7.0 | 9.0 | 0.00 | 0.00 | 0.00 | 69 | 1023.5 |
| 20260906183331 | 70 | 65 | 3.0 | 8.0 | 0.00 | 0.00 | 0.00 | 70 | 1023.5 |
| 20260906181839 | 70 | 358 | 6.0 | 9.0 | 0.00 | 0.00 | 0.00 | 72 | 1023.7 |
| 20260906180352 | 69 | 56 | 5.0 | 10.0 | 0.00 | 0.00 | 0.00 | 77 | 1023.6 |
| 20260906174821 | 70 | 56 | 5.0 | 9.0 | 0.00 | 0.00 | 0.00 | 73 | 1023.6 |
| 20260906173316 | 69 | 62 | 4.0 | 8.0 | 0.00 | 0.00 | 0.00 | 76 | 1023.6 |
| 20260906171829 | 69 | 39 | 5.0 | 9.0 | 0.00 | 0.00 | 0.00 | 73 | 1023.7 |
| 20260906170318 | 69 | 24 | 5.0 | 8.0 | 0.00 | 0.00 | 0.00 | 75 | 1023.7 |
| 20260906164828 | 69 | 310 | 3.0 | 6.0 | 0.00 | 0.00 | 0.00 | 77 | 1023.7 |
| 20260906163322 | 68 | 33 | 6.0 | 9.0 | 0.00 | 0.00 | 0.00 | 76 | 1023.7 |
| 20260906161815 | 68 | 33 | 4.0 | 9.0 | 0.00 | 0.00 | 0.00 | 79 | 1023.7 |
| 20260906160330 | 68 | 73 | 4.0 | 9.0 | 0.00 | 0.00 | 0.00 | 79 | 1023.7 |
| 20260906154814 | 68 | 71 | 3.0 | 8.0 | 0.00 | 0.00 | 0.00 | 81 | 1023.6 |
| 20260906153331 | 68 | 74 | 5.0 | 9.0 | 0.00 | 0.00 | 0.00 | 81 | 1023.6 |
| 20260906151819 | 68 | 58 | 5.0 | 9.0 | 0.00 | 0.00 | 0.00 | 83 | 1023.5 |
| 20260906150328 | 67 | 64 | 3.0 | 6.0 | 0.00 | 0.00 | 0.00 | 86 | 1023.5 |
| 20260906144816 | 67 | 19 | 6.0 | 11.0 | 0.00 | 0.00 | 0.00 | 87 | 1023.5 |
| 20260906143318 | 67 | 354 | 4.0 | 8.0 | 0.00 | 0.00 | 0.00 | 87 | 1023.3 |
| 20260906141852 | 67 | 56 | 5.0 | 7.0 | 0.00 | 0.00 | 0.00 | 89 | 1023.4 |
| 20260906140319 | 66 | 65 | 2.0 | 8.0 | 0.00 | 0.00 | 0.00 | 90 | 1023.4 |
| 20260906134828 | 66 | 47 | 5.0 | 9.0 | 0.00 | 0.00 | 0.00 | 90 | 1023.2 |
| 20260906133319 | 66 | 46 | 3.0 | 9.0 | 0.00 | 0.00 | 0.00 | 90 | 1023.0 |
| 20260906131831 | 65 | 47 | 5.0 | 12.0 | 0.00 | 0.00 | 0.00 | 84 | 1023.0 |
| 20260906130320 | 64 | 48 | 4.0 | 9.0 | 0.00 | 0.00 | 0.00 | 58 | 1023.0 |
| 20260906124815 | 63 | 30 | 1.0 | 4.0 | 0.00 | 0.00 | 0.00 | 52 | 1022.9 |
| 20260906123323 | 63 | 47 | 0.0 | 0.0 | 0.00 | 0.00 | 0.00 | 51 | 1022.9 |
| 20260906121817 | 62 | 101 | 0.0 | 0.0 | 0.00 | 0.00 | 0.00 | 51 | 1022.8 |
| 20260906120328 | 62 | 60 | 0.0 | 0.0 | 0.00 | 0.00 | 0.00 | 54 | 1022.7 |
| 20260906114822 | 59 | 60 | 0.0 | 0.0 | 0.00 | 0.00 | 0.00 | 59 | 1022.4 |
| 20260906113341 | 58 | 60 | 0.0 | 0.0 | 0.00 | 0.00 | 0.00 | 56 | 1022.3 |
| 20260906111853 | 56 | 60 | 0.0 | 0.0 | 0.00 | 0.00 | 0.00 | 55 | 1022.1 |
| 20260906110322 | 56 | 60 | 0.0 | 0.0 | 0.00 | 0.00 | 0.00 | 56 | 1022.0 |
| 20260906104836 | 56 | 60 | 0.0 | 0.0 | 0.00 | 0.00 | 0.00 | 57 | 1021.9 |
| 20260906103347 | 57 | 60 | 0.0 | 0.0 | 0.00 | 0.00 | 0.00 | 56 | 1021.7 |
| 20260906101840 | 57 | 60 | 0.0 | 0.0 | 0.00 | 0.00 | 0.00 | 56 | 1021.8 |
| 20260906100334 | 57 | 60 | 0.0 | 0.0 | 0.00 | 0.00 | 0.00 | 56 | 1021.6 |
| 20260906094823 | 58 | 60 | 0.0 | 0.0 | 0.00 | 0.00 | 0.00 | 55 | 1021.4 |
| 20260906093323 | 58 | 39 | 0.0 | 0.0 | 0.00 | 0.00 | 0.00 | 55 | 1021.4 |
| 20260906091811 | 58 | 46 | 0.0 | 0.0 | 0.00 | 0.00 | 0.00 | 57 | 1021.2 |
| 20260906090326 | 58 | 47 | 0.0 | 1.0 | 0.00 | 0.00 | 0.00 | 56 | 1021.1 |
| 20260906084813 | 58 | 46 | 0.0 | 0.0 | 0.00 | 0.00 | 0.00 | 58 | 1020.8 |
| 20260906083327 | 59 | 47 | 0.0 | 0.0 | 0.00 | 0.00 | 0.00 | 56 | 1020.6 |
| 20260906081816 | 59 | 46 | 0.0 | 0.0 | 0.00 | 0.00 | 0.00 | 57 | 1020.6 |
| 20260906080331 | 60 | 46 | 0.0 | 0.0 | 0.00 | 0.00 | 0.00 | 56 | 1020.6 |
| 20260906074818 | 60 | 46 | 0.0 | 0.0 | 0.00 | 0.00 | 0.00 | 55 | 1020.6 |
| 20260906073315 | 60 | 46 | 0.0 | 0.0 | 0.00 | 0.00 | 0.00 | 56 | 1020.5 |
| 20260906071813 | 60 | 47 | 0.0 | 1.0 | 0.00 | 0.00 | 0.00 | 56 | 1020.5 |
| 20260906070330 | 59 | 13 | 1.0 | 1.0 | 0.00 | 0.00 | 0.00 | 57 | 1020.5 |
| 20260906064819 | 59 | 13 | 0.0 | 0.0 | 0.00 | 0.00 | 0.00 | 58 | 1020.6 |
| 20260906063316 | 60 | 13 | 0.0 | 0.0 | 0.00 | 0.00 | 0.00 | 59 | 1020.6 |
| 20260906061831 | 60 | 13 | 0.0 | 1.0 | 0.00 | 0.00 | 0.00 | 60 | 1020.6 |
| 20260906060320 | 61 | 13 | 0.0 | 2.0 | 0.00 | 0.00 | 0.00 | 57 | 1020.7 |
| 20260906054835 | 61 | 71 | 0.0 | 0.0 | 0.00 | 0.00 | 0.00 | 56 | 1020.7 |
| 20260906053327 | 60 | 71 | 0.0 | 0.0 | 0.00 | 0.00 | 0.00 | 57 | 1020.7 |
| 20260906051811 | 60 | 71 | 0.0 | 0.0 | 0.00 | 0.00 | 0.00 | 57 | 1020.7 |
| 20260906050326 | 60 | 71 | 0.0 | 0.0 | 0.00 | 0.00 | 0.00 | 58 | 1020.8 |
| 20260906044822 | 59 | 71 | 0.0 | 0.0 | 0.00 | 0.00 | 0.00 | 59 | 1020.8 |
| 20260906043328 | 59 | 71 | 0.0 | 0.0 | 0.00 | 0.00 | 0.00 | 60 | 1020.6 |
| 20260906041820 | 59 | 71 | 0.0 | 0.0 | 0.00 | 0.00 | 0.00 | 62 | 1020.6 |
| 20260906040331 | 59 | 70 | 0.0 | 0.0 | 0.00 | 0.00 | 0.00 | 64 | 1020.4 |
| 20260906034829 | 59 | 70 | 0.0 | 0.0 | 0.00 | 0.00 | 0.00 | 65 | 1020.4 |
| 20260906033329 | 59 | 70 | 0.0 | 0.0 | 0.00 | 0.00 | 0.00 | 66 | 1020.3 |
| 20260906031844 | 59 | 71 | 0.0 | 1.0 | 0.00 | 0.00 | 0.00 | 68 | 1020.2 |
| 20260906030316 | 59 | 70 | 0.0 | 1.0 | 0.00 | 0.00 | 0.00 | 70 | 1020.2 |
| 20260906024811 | 59 | 70 | 0.0 | 1.0 | 0.00 | 0.00 | 0.00 | 70 | 1020.1 |
| 20260906023346 | 60 | 71 | 0.0 | 0.0 | 0.00 | 0.00 | 0.00 | 71 | 1020.1 |
| 20260906021811 | 60 | 70 | 0.0 | 0.0 | 0.00 | 0.00 | 0.00 | 74 | 1020.0 |
| 20260906020348 | 60 | 70 | 0.0 | 0.0 | 0.00 | 0.00 | 0.00 | 75 | 1020.0 |
| 20260906014812 | 60 | 70 | 0.0 | 0.0 | 0.00 | 0.00 | 0.00 | 78 | 1019.9 |
| 20260906013329 | 60 | 70 | 1.0 | 1.0 | 0.00 | 0.00 | 0.00 | 78 | 1019.8 |
| 20260906011823 | 61 | 71 | 1.0 | 1.0 | 0.00 | 0.00 | 0.00 | 81 | 1019.8 |
| 20260906010317 | 61 | 70 | 0.0 | 1.0 | 0.00 | 0.00 | 0.00 | 84 | 1019.7 |
| 20260906004831 | 61 | 70 | 0.0 | 0.0 | 0.00 | 0.00 | 0.00 | 87 | 1019.7 |
| 20260906003323 | 62 | 71 | 0.0 | 0.0 | 0.00 | 0.00 | 0.00 | 89 | 1019.6 |
| 20260906001833 | 63 | 70 | 0.0 | 1.0 | 0.00 | 0.00 | 0.00 | 89 | 1019.5 |
| 20260906000328 | 65 | 70 | 0.0 | 1.0 | 0.00 | 0.00 | 0.00 | 87 | 1019.6 |
| 20260905234833 | 66 | 65 | 2.0 | 4.0 | 0.00 | 0.00 | 0.00 | 85 | 1019.6 |
| 20260905233326 | 68 | 67 | 1.0 | 2.0 | 0.00 | 0.00 | 0.00 | 81 | 1019.6 |
| 20260905231814 | 70 | 61 | 2.0 | 3.0 | 0.00 | 0.00 | 0.00 | 76 | 1019.5 |
| 20260905230349 | 72 | 307 | 1.0 | 3.0 | 0.00 | 0.00 | 0.00 | 71 | 1019.4 |
| 20260905224821 | 73 | 348 | 0.0 | 4.0 | 0.00 | 0.00 | 0.00 | 69 | 1019.4 |
| 20260905223317 | 73 | 339 | 2.0 | 5.0 | 0.00 | 0.00 | 0.00 | 67 | 1019.4 |
| 20260905221829 | 73 | 326 | 3.0 | 8.0 | 0.00 | 0.00 | 0.00 | 66 | 1019.3 |
| 20260905220318 | 74 | 321 | 1.0 | 6.0 | 0.00 | 0.00 | 0.00 | 65 | 1019.2 |
| 20260905214811 | 74 | 33 | 2.0 | 5.0 | 0.00 | 0.00 | 0.00 | 66 | 1019.0 |
| 20260905213322 | 74 | 44 | 3.0 | 9.0 | 0.00 | 0.00 | 0.00 | 66 | 1018.9 |